This demonstration page uses our WeatherBlox Daily Observations layout. Learn more.

Left ArrowRight Arrow

Hourly Observations for October 16, 2015

Temp ( °F °C ) Dew Point ( °F °C ) Humidity (%) Winds ( mph kmh ) Pressure ( in mb ) Visibility ( mi km ) Precip ( " mm )
12:53 am 00:53 Clear 56 13.3 53 11.7 90 90 Calm 30.13 1020 10 16 0.00 0.00
1:53 am 01:53 Clear 55 12.8 52 11.1 90 90 Calm 30.11 1020 10 16 0.00 0.00
2:53 am 02:53 Clear 54 12.2 52 11.1 93 93 Calm 30.11 1020 10 16 0.00 0.00
3:53 am 03:53 Clear 53 11.7 51 10.6 93 93 Calm 30.10 1019 10 16 0.00 0.00
4:53 am 04:53 Clear 53 11.7 50 10 89 89 Calm 30.10 1019 10 16 0.00 0.00
5:53 am 05:53 Clear 53 11.7 50 10 89 89 Calm 30.10 1019 10 16 0.00 0.00
6:53 am 06:53 Clear 53 11.7 51 10.6 93 93 Calm 30.11 1020 10 16 0.00 0.00
7:53 am 07:53 Sunny 52 11.1 49 9.4 89 89 Calm 30.12 1020 8 13 0.00 0.00
8:53 am 08:53 Sunny 56 13.3 52 11.1 87 87 Calm 30.13 1020 10 16 0.00 0.00
9:53 am 09:53 Sunny 62 16.7 54 12.2 75 75 WSW 5 7 30.14 1021 10 16 0.00 0.00
10:53 am 10:53 Sunny 69 20.6 54 12.2 59 59 NW 10 17 30.14 1021 10 16 0.00 0.00
11:53 am 11:53 Sunny 73 22.8 53 11.7 50 50 NNW 8 13 30.14 1021 10 16 0.00 0.00
12:53 pm 12:53 Sunny 74 23.3 52 11.1 46 46 NNW 13 20 30.14 1021 10 16 0.00 0.00
1:53 pm 13:53 Sunny 74 23.3 50 10 43 43 WNW 16 26 30.13 1020 10 16 0.00 0.00
2:53 pm 14:53 Sunny 74 23.3 49 9.4 41 41 NNW 9 15 30.13 1020 10 16 0.00 0.00
3:53 pm 15:53 Sunny 74 23.3 45 7.2 36 36 NW 13 20 30.12 1020 10 16 0.00 0.00
4:53 pm 16:53 Sunny 73 22.8 41 5 32 32 N 10 17 30.12 1020 10 16 0.00 0.00
5:53 pm 17:53 Sunny 72 22.2 41 5 33 33 NNW 8 13 30.13 1020 10 16 0.00 0.00
6:53 pm 18:53 Sunny 68 20 40 4.4 36 36 NNW 6 9 30.14 1021 10 16 0.00 0.00
7:53 pm 19:53 Clear 62 16.7 40 4.4 44 44 N 5 7 30.16 1022 10 16 0.00 0.00
8:53 pm 20:53 Clear 60 15.6 34 1.1 38 38 NNW 6 9 30.17 1022 10 16 0.00 0.00
9:53 pm 21:53 Clear 58 14.4 34 1.1 41 41 N 3 6 30.19 1022 10 16 0.00 0.00
10:53 pm 22:53 Clear 58 14.4 33 0.6 39 39 Calm 30.19 1022 10 16 0.00 0.00
11:53 pm 23:53 Clear 56 13.3 34 1.1 44 44 Calm 30.20 1023 10 16 0.00 0.00

Powered by AerisWeather